www.pogodaiklimat.ru

Погода и климат >> Архив погоды >> Россия >> Магаданская область >> Коркодон


ПОГОДА в Коркодоне

  • Прогноз погоды в Коркодоне
  • Монитор погоды в Коркодоне
  • Климат города

АРХИВ ПОГОДЫ в Коркодоне

Время (UTC), дата Ветер
(напр.,м/с)
 
Видим.   Явления Облачность Т
(С)
Тd
(С)
f
(%)
Тe
(С)
Тes
(С)
Комфортность P
(гПа)
Po
(гПа)
Тmin
(С)
Tmax
(С)
R
(мм)
R24
(мм)
S
(см)
06 17.08 С 4 50 км 9/6 1000 м
[Sc Ac trans]
+25.3 +15.2 54 +28 +29 жарко 1005.8 994.5
09 17.08 СЗ 2
{12}
50 км 10/10 1000 м
[Cb cap]
+18.6 +14.1 75 +20 +20 1009.3 997.8 +27.3
12 17.08 Ю 1 50 км {ливн. осадки} 10/10 600 м
[Cb cap]
+15.3 +13.5 89 +16 +16 1011.1 999.4
15 17.08 ЮВ 1 50 км 10/10 600 м
[Cb cap]
+14.0 +12.9 93 +14 +14 1011.7 999.9
18 17.08 В 1 50 км {ливн. осадки} 10/10 600 м
[Cb cap]
+12.2 +10.5 89 +12 +12 1011.8 999.9
21 17.08 ЮВ 1 20 км слабый ливневой дождь 10/10 600 м
[Cb cap]
+12.0 +10.9 93 +12 +12 1011.2 999.4 +11.7 1
00 18.08 В 1 50 км {ливн. осадки} 10/10 600 м
[Cb cap]
+11.8 +9.4 85 +12 +12 1010.9 999.1 +11.4
03 18.08 В 1 50 км 10/10 600 м
[Cb cap]
+12.6 +9.2 80 +13 +13 1010.0 998.2
06 18.08 В 2 20 км слабый ливневой дождь 10/10 600 м
[Cb cap]
+11.1 +9.7 91 +10 +10 1010.2 998.4
09 18.08 В 1 4000 м ливневой дождь 10/10 300 м
[Cb cap]
+10.1 +9.5 96 +10 +10 1011.4 999.5 +12.8 3
12 18.08 штиль 0 50 км {ливн. осадки} 10/10 600 м
[Cb cap]
+9.5 +9.1 97 +9 +9 1012.3 1000.3
15 18.08 штиль 0 50 км 10/10 600 м
[Cb cap]
+9.6 +9.2 97 +9 +9 1012.7 1000.7
18 18.08 С 1 50 км 10/10 600 м
[Cb cap]
+8.7 +8.3 97 +8 +8 1013.5 1001.4
21 18.08 В 1 20 км слабая морось 10/10 300 м
[St]
+9.8 +9.2 96 +9 +9 1013.9 1001.9 +8.7 1
00 19.08 В 2 50 км в посл. час морось 9/9 600 м
[Cb cap]
+10.7 +8.3 85 +9 +10 1013.7 1001.7
03 19.08 В 3 50 км 9/9 600 м
[Cb cap]
+12.9 +6.9 67 +12 +12 1012.2 1000.4
06 19.08 В 3 50 км 9/9 600 м
[Cb cap]
+13.5 +8.3 71 +12 +13 1010.4 998.6
09 19.08 В 2 50 км 9/6 1000 м
[Sc Ci fib]
+12.8 +8.4 75 +12 +12 1008.5 996.7 +14.9 1
12 19.08 В 1 50 км 6/4 1000 м
[Sc Ci fib]
+8.5 +7.9 96 +8 +8 1007.1 995.1
15 19.08 В 2 50 км 8/5 1000 м
[Sc Ci fib]
+8.0 +6.9 93 +6 +6 1004.6 992.7
18 19.08 В 1 50 км 9/5 1000 м
[Sc Ci fib]
+7.1 +6.4 95 1003.6 991.7
21 19.08 В 2 50 км 10/10 1000 м
[Sc]
+9.2 +6.9 86 +7 +7 1004.0 992.1 +7.2
00 20.08 З 1 20 км слабый ливневой дождь 10/10 600 м
[Cb cap]
+10.3 +9.5 95 +10 +10 1005.5 993.6
03 20.08 З 2 20 км слабый ливневой дождь 10/10 300 м
[Cb cap]
+12.3 +11.9 97 +11 +11 1006.9 994.9
06 20.08 З 2 20 км слабый ливневой дождь 10/10 600 м
[Cb cap]
+12.6 +10.3 86 +12 +12 1007.9 996.1
09 20.08 СЗ 1 50 км {ливн. осадки} 8/8 600 м
[Cb cap]
+12.6 +9.9 84 +13 +13 1009.5 997.7 +12.6 9
12 20.08 штиль 0 50 км {ливн. осадки} 8/4 1000 м
[Sc Ci fib]
+7.6 +7.2 97 +7 +7 1011.1 999.1
15 20.08 штиль 0 50 км 9/5 1000 м
[Sc Ci fib]
+5.8 +5.6 99 +5 +5 1012.3 1000.2
18 20.08 В 1 500 м туман ?/? +6.8 +6.8 100 1012.2 1001.5
21 20.08 штиль 0 500 м туман ?/? +8.5 +8.3 99 +7 +7 1014.8 1002.7 +5.6
00 21.08 З 1 50 км 10/10 1000 м
[Sc]
+11.7 +8.5 81 +12 +12 1024.2 1003.3
03 21.08 З 1 50 км 9/9 1000 м
[Cb cap]
+14.0 +8.7 70 +14 +15 1015.3 1003.5
06 21.08 В 1 50 км 9/9 1000 м
[Sc]
+15.3 +5.7 53 +16 +16 1015.6 1003.9
09 21.08 С 1 50 км 8/5 1000 м
[Sc Ci fib]
+12.2 +8.2 77 +12 +12 1016.5 1004.5 +16.7
12 21.08 С 1 50 км 8/5 1000 м
[Sc Ci fib]
+5.6 +4.9 95 +4 +4 1017.8 1005.6
15 21.08 СВ 1 50 км местами туман поземный 6/6 1000 м
[Sc]
+2.0 +1.7 98 0 0 1018.2 1005.8
18 21.08 штиль 0 500 м туман ?/? +4.7 +4.7 100 +3 +3 1018.2 1005.9
21 21.08 В 1 500 м туман ?/? +4.1 +4.1 100 +2 +2 1017.8 1005.5 +1.8
00 22.08 В 1 20 км туман местами 4/0
[Ci fib]
+8.1 +7.7 97 +7 +14 1016.3 1004.2
03 22.08 ЮВ 2 50 км {туман} 8/0
[Ci fib]
+16.7 +6.6 51 +17 +23 1013.5 1001.8
06 22.08 ЮВ 2 50 км 3/0
[Ci fib]
+18.4 +7.1 48 +19 +22 1011.8 1002.0
09 22.08 СВ 1 50 км 3/0
[Ci fib]
+14.8 +9.8 72 +15 +15 1011.2 999.5 +18.5
12 22.08 ЮВ 1 50 км 4/0
[Ci fib]
+8.3 +7.7 96 +7 +7 1010.7 998.7
15 22.08 С 1 50 км местами туман поземный 3/0
[Ci fib]
+6.2 +5.8 97 +5 +5 1010.3 998.2
18 22.08 В 2 50 км 3/0
[Ci fib]
+8.0 +7.4 96 +6 +6 1009.8 997.8
21 22.08 В 3 50 км 3/0
[Ci fib]
+11.3 +8.5 83 +9 +11 1009.3 997.5 +6.2
00 23.08 ЮВ 2 50 км 3/0
[Ci fib]
+17.7 +10.6 63 1008.0 996.2
03 23.08 ЮВ 2 50 км 3/0
[Ci fib]
+21.3 +11.0 52 +23 +30 комфорт 1006.2 994.5
06 23.08 ЮВ 2 50 км 3/0
[Ci fib]
+22.9 +10.9 47 +25 +28 комфорт 1004.1 992.8
09 23.08 С 2 50 км 3/0
[Ci fib]
+17.7 +10.4 62 +18 +18 1004.2 992.7 +22.9
12 23.08 СВ 2 50 км 3/0
[Ci fib]
+11.7 +10.1 90 +11 +11 1004.9 993.1
15 23.08 СВ 1 50 км 3/0
[Ci fib]
+8.5 +8.1 97 +8 +8 1004.9 993.1
18 23.08 В 3 50 км 3/0
[Ac trans]
+9.2 +8.0 92 +7 +7 1005.2 993.3
21 23.08 В 2 50 км 4/0
[Ci fib]
+13.2 +8.6 74 +13 +14 1005.3 993.6 +7.2
00 24.08 ЮВ 2 50 км 1/0
[Ci fib]
+18.7 +10.3 58
03 24.08 ЮВ 3 50 км ясно +22.2 +10.8 48 +24 +30 комфорт 1003.9 992.5

 

Местоположение метеостанции Коркодон (Магаданская область, Россия): широта 64.75 долгота 153.90 высота над уровнем моря 99 м.

В архиве по умолчанию представлена погода в Коркодоне за последнюю неделю. Архивные данные за месяц целиком и за предыдущие месяцы, начиная с января 2011 года, Вы можете получить, выбрав интересующий диапазон дат из раскрывающегося списка и нажав кнопку "Ввод!".

Внимание! Время в таблицах - всемирное. Для получения местного времени необходимо прибавить поправку, которая в Коркодоне равна 11 ч.

Смотрите также архив погоды в соседних городах и на ближайших метеорологических станциях:

Погода в Балыгычане (Магаданская область, Россия) (94 км)
Погода в Зырянке (Якутия, Россия) (177 км)
Погода в Сеймчане (Магаданская область, Россия) (217 км)
Погода в Омсукчане (Магаданская область, Россия) (265 км)
Погода в Среднекане (Магаданская область, Россия) (268 км)
Погода в Совхозе Эльген (Магаданская область, Россия) (271 км)
Погода в Лабазной (Магаданская область, Россия) (276 км)
Погода в Среднеколымске (Якутия, Россия) (300 км)
Погода в Омолоне (Чукотка, Россия) (315 км)
Погода в Ягодной (Магаданская область, Россия) (327 км)

Пояснения к столбцам:

Ветер - указаны скорость ветра в м/с - средняя за 10 мин, порывы в срок и между сроками (в фигурных скобках) и направление, откуда дует ветер: С - северный, СВ - северо-восточный, В - восточный, ЮВ - юго-восточный, Ю - южный, ЮЗ - юго-западный, З - западный, СЗ - северо-западный.
Видимость - горизонтальная дальность видимости в метрах или километрах. При видимости от 1 до 10 км при отсутствии осадков обычно наблюдается дымка, при ухудшении видимости до 1 км и менее - туман. В сухую погоду видимость может ухудшаться дымом, пылью или мглою.
Явления - указаны атмосферные явления, наблюдавшиеся в срок или в последний час перед сроком; фигурными скобками обозначены явления, наблюдавшиеся между сроками (за 1-3 часа до срока); квадратными скобками обозначены град или гололедные отложения с указанием их диаметра в мм.
Облачность - указаны через наклонную черту общая и нижняя облачность в баллах и высота нижней границы облаков в метрах; квадратными скобками обозначены формы облаков: Ci - перистые, Cs - перисто-слоистые, Cc - перисто-кучевые, Ac - высококучевые, As - высокослоистые, Sc - слоисто-кучевые, Ns - слоисто-дождевые, Cu - кучевые, Cb - кучево-дождевые. Подробнее классификацию облаков см. в Атласе облаков (PDF).
T - Температура воздуха - температура, измеренная на высоте 2 м над землей.
Td - Температура точки росы - температура, при понижении до которой содержащийся в воздухе водяной пар достигнет насыщения.
f - Относительная влажность воздуха - влажноcть воздуха, измеренная на высоте 2 м над землей.
Te - Эффективная температура - температура, которую ощущает одетый по сезону человек в тени. Характеристика душности погоды. При расчете учитывается влияние влажности воздуха и скорости ветра на теплоощущения человека.
Tes - Эффективная температура на солнце - температура, которую ощущает человек, с поправкой на солнечный нагрев. Характеристика знойности погоды. Зависит от высоты солнца над горизонтом, облачности и скорости ветра. Ночью, в пасмурную погоду, а также при ветре 12 м/с и более поправка равна нулю.
P - Атмосферное давление - приведенное к уровню моря атмосферное давление.
Po - Атмосферное давление - измеренное на уровне метеостанции атмосферное давление.
Tmin - Минимальная температура - минимум температуры воздуха на высоте 2 м над землей.
Tmax - Максимальная температура - максимум температуры воздуха на высоте 2 м над землей.
R - Количество осадков - Количество выпавших осадков за период времени, мм. При наведении курсора мыши на число - период времени, за который выпало указанное количество осадков.
R24 - Количество осадков - Количество выпавших осадков за 24 часа, мм.
S - Снежный покров - Высота снежного покрова, см. При наведении курсора мыши на число - состояние снежного покрова и степень покрытия местности в баллах.